Location: Centerville
(32.8776°N, 96.6203°W)
Time: 00:38:58
(UTC+00:00)

Lacrosse 5 - Pass Details

Date: 17 June 2021
Orbit: 715 x 724 km, 57.0° (Epoch: 28 July)

Event Time Altitude Azimuth Distance (km) Brightness Sun altitude
Rises 03:44:37 0° 324° (NW) 3,122 6.7 -21.7°
Reaches altitude 10° 03:47:01 10° 326° (NNW) 2,201 5.5 -22.0°
Maximum altitude 03:52:04 69° 50° (NE) 766 1.9 -22.6°
Enters shadow 03:52:58 56° 106° (ESE) 849 1.9 -22.8°
